Regional Weather Roundup
Issued by NWS

Home | Current Version | Previous Version | Graphics & Text | Print | Product List | Glossary On
Versions: 1 2 3 4 5 6 7 8 9 10 11 12 13 14 15 16 17 18 19 20 21 22 23 24 25 26 27 28 29 30 31 32 33 34 35 36 37 38 39 40 41 42 43 44 45 46 47 48 49 50
000
ASUS43 KMPX 291110
RWRMN
WEATHER ROUNDUP FOR MINNESOTA
NATIONAL WEATHER SERVICE TWIN CITIES/CHANHASSEN MN
600 AM CDT WED JUL 29 2015


NOTE: "FAIR" INDICATES FEW OR NO CLOUDS BELOW 12,000 FEET WITH NO
SIGNIFICANT WEATHER AND/OR OBSTRUCTIONS TO VISIBILITY. N/A MEANS
CURRENT SKY AND/OR WEATHER CONDITIONS ARE NOT AVAILABLE.

MNZ060>063-068>070-291200-
   Twin Cities Metro

CITY           SKY/WX    TMP DP  RH WIND       PRES   REMARKS
TWIN CITIES    PTCLDY    66  52  60 W12       29.93R
ST PAUL        CLEAR     66  52  60 W12G23    29.93R
CRYSTAL        CLEAR     68  50  52 W16G25    29.91R
BLAINE         CLEAR     70  50  49 W15G24    29.91R
LAKEVILLE      CLEAR     63  54  72 SW9G16    29.96R
EDEN PRAIRIE   CLEAR     64  52  64 W9        29.94R
SOUTH ST PAUL  CLEAR     66  52  59 W13       29.93R
LAKE ELMO      FAIR      64  54  68 SW10G16   29.93R
$$
MNZ001>005-007-008-013>017-022>024-027-028-291200-
   Northwest Minnesota

CITY           SKY/WX    TMP DP  RH WIND       PRES   REMARKS
BEMIDJI        CLOUDY    62  53  71 W28G39    29.67R
HALLOCK        CLOUDY    63  57  82 W25       29.53R
ROSEAU         CLOUDY    63  55  77 SW18G29   29.49R
WARROAD        CLOUDY    63  57  82 SW17G29   29.48R
THIEF RVR FALL CLOUDY    63  54  72 W21G29    29.61R
CROOKSTON      CLOUDY    64  55  72 W25G32    29.64R
FOSSTON        CLOUDY    61  52  72 W22G32    29.67S
DETROIT LAKES  MOCLDY    63  50  63 W22G32    29.77S
MOORHEAD       MOCLDY    64  52  63 W20G25    29.77S
PARK RAPIDS    CLOUDY    65  49  56 W21G33    29.73S
MAHNOMEN       CLOUDY    62  51  68 SW20G31   29.71R
$$
MNZ006-009>011-018-025>026-291200-
   North Central Minnesota

CITY           SKY/WX    TMP DP  RH WIND       PRES   REMARKS
BAUDETTE       CLOUDY    60  56  86 SW17G33   29.51R
FLAG ISLAND    CLOUDY    63  59  88 SW23G31   29.41R
INTL FALLS     LGT RAIN  63  53  70 SW14G25   29.53S
WASKISH        CLOUDY    63  57  82 SW28G39   29.58R
BIG FORK       CLOUDY    63  52  67 SW18G26   29.63S
LONGVILLE      CLOUDY    64  52  63 SW12G23   29.72S
GRAND RAPIDS   CLOUDY    64  48  55 SW14G23   29.70S
CRANE LAKE     CLOUDY    63  50  63 SW8G16    29.61S
ORR            CLOUDY    63  48  59 SW8G21    29.59S
COOK           CLOUDY    64  50  59 SW13G23   29.63S
WALKER         CLOUDY    63  50  63 SW18G25   29.69S
$$
MNZ012-019>021-037-291200-
   Northeast Minnesota

CITY           SKY/WX    TMP DP  RH WIND       PRES   REMARKS
DULUTH         CLEAR     64  47  53 W22G29    29.72S
ELY            CLOUDY    63  46  55 SW13G22   29.64S
HIBBING        CLOUDY    64  48  56 SW9G21    29.68R
EVELETH        CLOUDY    63  46  55 SW15G26   29.68S
DULUTH HARBOR  CLEAR     64  54  68 SW16      29.72S
TWO HARBORS    CLEAR     63  54  72 SW10      29.69S
SILVER BAY     CLEAR     61  52  72 SW5       29.67F
GRAND MARAIS     N/A     56  52  86 W7        29.66S
G MARAIS ARPRT CLEAR     61  48  63 S15G25    29.69S
$$
MNZ029>031-032-039>041-046>048-054>057-064-291200-
   West Central Minnesota

CITY           SKY/WX    TMP DP  RH WIND       PRES   REMARKS
FERGUS FALLS   CLEAR     63  50  63 W21G29    29.83S
WHEATON        CLEAR     63  48  59 SW15G21   29.91R
MORRIS         CLEAR     63  52  67 SW14      29.90R
ALEXANDRIA     CLEAR     63  49  60 W20G29    29.88R
ELBOW LAKE     FAIR      62  49  61 W15G23    29.86S
WADENA         PTCLDY    63  50  63 SW18G26   29.79S
GLENWOOD       CLEAR     63  50  63 SW15G22   29.89F
APPLETON       CLEAR     63  50  63 SW9       29.93S
BENSON         CLEAR     61  48  63 W14       29.92S
ORTONVILLE     CLEAR     63  48  59 SW16G23   29.93S
MADISON        CLEAR     61  48  63 SW9       29.97R
WILLMAR        FAIR      61  52  72 SW15      29.96S
$$
MNZ033>034-036-042>043-049>051-058-059-291200-
   Central Minnesota

CITY           SKY/WX    TMP DP  RH WIND       PRES   REMARKS
ST CLOUD       CLEAR     66  49  54 SW18G26   29.87R
SAUK CENTRE    FAIR      62  49  64 SW12      29.88S
PAYNESVILLE    CLEAR     61  49  64 S17G23    29.91F
AITKIN         CLOUDY    66  50  55 SW16G23   29.75F
PINE RIVER     CLOUDY    64  52  63 SW12G20   29.79S
BRAINERD       CLOUDY    65  49  56 W23G36    29.79R
STAPLES        MOCLDY    63  48  59 SW18G25   29.80S
LONG PRAIRIE   FAIR      61  48  63 SW12      29.86S
LITTLE FALLS   CLEAR     63  46  55 SW10G16   29.84S
LITCHFIELD     CLEAR     64  52  63 SW10G20   29.94S
BUFFALO        CLEAR     64  51  63 SW7       29.93S
MAPLE LAKE     CLEAR     64  52  63 SW8       29.92R
$$
MNZ037-044-045-052-053-291200-
   East Central Minnesota

CITY           SKY/WX    TMP DP  RH WIND       PRES   REMARKS
PRINCETON      CLEAR     66  50  55 SW15G22   29.87R
MORA           CLEAR     64  50  59 W14G21    29.85R
CAMBRIDGE      CLEAR     70  52  52 SW9G22    29.85R
RUSH CITY      PTCLDY    65  49  56 SW9       29.85S
MOOSE LAKE     MOCLDY    63  48  59 W15G21    29.75S
HINCKLEY       FAIR      64  50  59 SW13G23   29.81S
MCGREGOR       CLOUDY    64  50  59 W14G29    29.76S
$$
MNZ071>073-080-081-089-090-097-098-291200-
   Southwest Minnesota

CITY           SKY/WX    TMP DP  RH WIND       PRES   REMARKS
MONTEVIDEO     CLEAR     63  50  63 W14G20    29.98S
GRANITE FALLS  CLEAR     58  51  76 S9        30.01R
CANBY          CLEAR     62  49  63 SW9       30.01R
MARSHALL       CLEAR     61  48  63 SW10      30.03R
REDWOOD FALLS  CLEAR     64  50  60 W15       29.98R
OLIVIA         CLEAR     59  46  63 W13G18    29.97S
PIPESTONE      CLEAR     57  50  77 W5        30.08R
WINDOM         CLEAR     57  52  82 SW9       30.05S
WORTHINGTON    CLEAR     59  48  67 W9        30.08S
JACKSON        CLEAR     61  52  72 W9        30.07R
TRACY          CLEAR     63  50  63 W9G16     30.03S
SLAYTON        CLEAR     59  50  70 W9        30.06F
$$
MNZ065>067-074>077-082>085-091>093-291200-
   South Central Minnesota

CITY           SKY/WX    TMP DP  RH WIND       PRES   REMARKS
MANKATO        CLEAR     63  50  63 W9        30.00R
NEW ULM        CLEAR     59  52  77 SW10      30.00R
ST JAMES       CLEAR     63  54  72 SW9       30.04R
FAIRMONT       CLEAR     61  48  63 W9        30.04R
GLENCOE        CLEAR     61  55  78 SW8       29.96R
FARIBAULT      CLEAR     61  55  82 SW7       29.99R
OWATONNA       CLEAR     61  54  77 SW9G16    30.00S
WASECA         CLEAR     55  54  94 SW9       30.02S
ALBERT LEA     PTCLDY    64  54  68 SW9       30.02S
$$
MNZ078>079-086>088-094>096-291200-
   Southeast Minnesota

CITY           SKY/WX    TMP DP  RH WIND       PRES   REMARKS
ROCHESTER      PTCLDY    61  56  83 SW12      30.01R
RED WING       CLEAR     66  55  68 W8        29.93S
STANTON        CLEAR     61  56  84 SW8       29.96R
DODGE CENTER   PTCLDY    59  55  88 SW7       30.00S
WINONA         MOCLDY    66  55  68 SW6       29.98R
AUSTIN         PTCLDY    63  57  82 SW6       30.02S
PRESTON        MOCLDY    62  56  80 W8        30.02R
$$
ABBREVIATIONS USED IN REMARKS
   TC - TEMPERATURES IN CELSIUS
  WCI - WIND CHILL INDEX
   HX - HEAT INDEX
  VSB - VISIBILITY
$$


USA.gov is the U.S. government's official web portal to all federal, state and local government web resources and services.